{"data":{"norad_id":41588,"epoch":"2026-09-20T00:10:09.905376Z","epoch_age_seconds":68264,"freshness":"FRESH","line1":"1 41588U 16038A   26263.00705909  .00000000  00000+0  00000+0 0  9991","line2":"2 41588   0.0166 163.0638 0001766 316.5523 316.5586  1.00269910 37656","mean_motion":1.0026991,"eccentricity":0.0001766,"inclination_deg":0.0166,"raan_deg":163.0638,"arg_perigee_deg":316.5523,"mean_anomaly_deg":316.5586,"bstar":0,"rev_number":3765,"period_min":1436.1237583638,"perigee_km":35779.674215454,"apogee_km":35794.566984438,"semimajor_km":42165.257599946,"source":"CELESTRAK","updated_at":"2026-09-20T09:00:35.225329Z"}}